FW1286 Weather Reports


time (UTC)temp
C
wind
direction
speed
KPH
gust
KPH
rain 1hr
cm
rain 24hr
cm
rain mn
cm
humidity
%
barometer
mb
20260509213059 31 31 1.6 8.0 0.00 1.42 1.45 59 1007.4
20260509212104 31 16 1.6 6.4 0.00 1.42 1.45 58 1007.4
20260509211035 31 78 3.2 8.0 0.00 1.42 1.45 59 1007.5
20260509210056 31 67 1.6 8.0 0.00 1.42 1.45 59 1007.6
20260509205027 31 236 1.6 9.7 0.00 1.42 1.45 59 1007.8
20260509204049 30 236 3.2 9.7 0.00 1.42 1.45 58 1008.0
20260509203018 30 51 1.6 9.7 0.00 1.42 1.45 57 1008.3
20260509201945 30 115 4.8 9.7 0.00 1.42 1.45 58 1008.5
20260509200925 30 9 3.2 8.0 0.00 1.42 1.45 56 1008.5
20260509195859 30 10 3.2 8.0 0.00 1.42 1.45 53 1008.6
20260509194904 29 28 3.2 9.7 0.00 1.42 1.45 58 1008.7
20260509193839 28 80 3.2 9.7 0.00 1.42 1.45 58 1008.9
20260509192821 28 71 1.6 6.4 0.00 1.42 1.45 62 1008.9
20260509191832 27 21 1.6 6.4 0.00 1.42 1.45 66 1009.1
20260509190802 26 40 1.6 6.4 0.00 1.42 1.45 73 1009.3
20260509184637 23 65 3.2 8.0 0.00 1.42 1.45 93 1009.5
20260509183653 23 38 1.6 6.4 0.00 1.42 1.45 96 1009.6
20260509182621 22 355 1.6 6.4 0.00 1.42 1.45 95 1009.9
20260509181634 21 146 0.0 1.6 0.00 1.42 1.45 91 1010.0
20260509180623 21 102 1.6 11.3 0.00 1.40 1.40 92 1010.4
20260509175622 21 121 3.2 29.0 0.15 1.40 1.40 91 1010.5
20260509173440 25 29 4.8 14.5 5.46 0.48 0.53 86 1010.7
20260509172430 27 67 3.2 11.3 0.00 0.00 0.00 79 1010.3
20260509171408 27 111 1.6 9.7 0.00 0.00 0.00 76 1010.2
20260509170335 28 188 1.6 11.3 0.00 0.00 0.00 71 1010.2
20260509165317 28 190 4.8 11.3 0.00 0.00 0.00 70 1010.2
20260509164300 28 171 4.8 11.3 0.00 0.00 0.00 72 1010.4
20260509163316 28 104 4.8 14.5 0.00 0.00 0.00 73 1010.4
20260509162330 28 215 4.8 14.5 0.00 0.00 0.00 72 1010.3
20260509161338 28 230 1.6 9.7 0.00 0.00 0.00 73 1010.2
20260509160318 27 165 4.8 9.7 0.00 0.00 0.00 73 1010.2
20260509152945 27 338 4.8 12.9 0.00 0.00 0.00 79 1010.1
20260509151918 26 181 8.0 20.9 0.00 0.00 0.00 80 1009.7
20260509150847 26 194 11.3 20.9 0.00 0.00 0.00 81 1009.5
20260509145842 26 194 9.7 16.1 0.00 0.00 0.00 83 1009.8
20260509144815 25 185 9.7 16.1 0.00 0.00 0.00 84 1010.1
20260509143827 25 192 8.0 17.7 0.00 0.00 0.00 87 1009.7
20260509142845 25 136 9.7 17.7 0.00 0.00 0.00 89 1009.4
20260509141833 23 173 4.8 11.3 0.00 0.00 0.00 91 1009.5
20260509140841 23 189 6.4 12.9 0.00 0.00 0.00 93 1009.6
20260509134731 22 150 6.4 12.9 0.00 0.00 0.00 97 1009.7
20260509133744 21 168 3.2 9.7 0.00 0.00 0.00 98 1009.4
20260509132742 21 127 3.2 9.7 0.00 0.00 0.00 98 1009.2
20260509131749 21 167 3.2 9.7 0.00 0.00 0.00 97 1008.9
20260509130743 20 140 3.2 9.7 0.00 0.00 0.00 97 1008.9
20260509125721 20 121 4.8 9.7 0.00 0.00 0.00 97 1009.0
20260509124741 20 126 1.6 8.0 0.00 0.00 0.00 97 1009.3
20260509123744 20 177 1.6 6.4 0.00 0.00 0.00 97 1009.4
20260509122752 20 129 1.6 6.4 0.00 0.00 0.00 97 1009.2
20260509121801 20 155 0.0 4.8 0.00 0.00 0.00 97 1009.6
20260509120744 20 135 0.0 4.8 0.00 0.00 0.00 96 1009.5
20260509115745 20 136 0.0 9.7 0.00 0.00 0.00 96 1009.6
20260509114717 20 136 1.6 4.8 0.00 0.00 0.00 96 1009.6
20260509112514 20 267 1.6 0.0 0.00 0.00 0.00 96 1010.3
20260509111445 21 267 3.2 9.7 0.00 0.00 0.00 96 1010.9
20260509105308 21 302 1.6 6.4 0.00 0.00 0.00 96 1011.2
20260509104244 21 324 1.6 6.4 0.00 0.00 0.00 96 1011.1
20260509103257 21 324 1.6 0.0 0.00 0.00 0.00 96 1011.3
20260509101153 21 306 0.0 0.0 0.00 0.00 0.00 96 1010.8
20260509100143 21 306 0.0 3.2 0.00 0.00 0.00 96 1010.9
20260509095159 21 306 0.0 1.6 0.00 0.03 0.00 96 1010.6
20260509094210 21 306 0.0 1.6 0.00 0.05 0.00 96 1010.4
20260509093143 21 306 1.6 9.7 0.00 0.05 0.00 96 1010.1
20260509092115 21 300 3.2 9.7 0.00 0.05 0.00 96 1010.1
20260509091135 21 165 0.0 1.6 0.00 0.05 0.00 95 1009.7
20260509090116 21 165 0.0 0.0 0.00 0.05 0.00 95 1009.6
20260509085135 21 165 0.0 0.0 0.00 0.05 0.00 95 1009.7
20260509084120 22 165 0.0 0.0 0.00 0.05 0.00 95 1009.8
20260509083141 22 110 0.0 6.4 0.00 0.05 0.00 95 1009.8
20260509082128 21 145 0.0 4.8 0.00 0.05 0.00 95 1010.0
20260509081130 21 37 0.0 0.0 0.00 0.05 0.00 95 1010.1
20260509080145 21 37 0.0 0.0 0.00 0.05 0.00 94 1010.0
20260509075125 21 37 0.0 0.0 0.00 0.05 0.00 94 1010.2
20260509074121 22 37 0.0 0.0 0.00 0.05 0.00 95 1010.5
20260509073118 22 37 0.0 0.0 0.00 0.05 0.00 95 1010.6
20260509072046 22 37 0.0 0.0 0.00 0.05 0.00 94 1010.8
20260509065912 22 37 0.0 0.0 0.00 0.05 0.00 94 1010.3
20260509064936 22 37 0.0 0.0 0.00 0.05 0.00 94 1010.4
20260509063951 22 37 0.0 0.0 0.00 0.05 0.00 94 1010.4
20260509063002 22 37 0.0 0.0 0.00 0.05 0.00 94 1010.7
20260509062018 22 37 0.0 0.0 0.00 0.05 0.00 94 1010.9
20260509061010 22 37 0.0 0.0 0.00 0.05 0.00 94 1010.5
20260509054834 22 37 0.0 0.0 0.00 0.05 0.00 93 1010.7
20260509053828 22 37 0.0 0.0 0.00 0.05 0.00 93 1010.2
20260509052815 22 37 0.0 1.6 0.00 0.05 0.00 93 1009.6
20260509051806 22 37 0.0 0.0 0.00 0.05 0.00 93 1009.2
20260509050733 22 37 0.0 0.0 0.00 0.05 0.00 93 1009.1
20260509045701 22 37 0.0 0.0 0.00 0.05 0.05 93 1008.9
20260509044651 22 69 0.0 8.0 0.00 0.05 0.05 92 1008.9
20260509043638 22 116 0.0 8.0 0.00 0.05 0.05 92 1009.2
20260509042613 22 93 1.6 8.0 0.00 0.05 0.05 92 1009.4
20260509040441 22 108 1.6 6.4 0.00 0.05 0.05 93 1009.6
20260509035425 22 117 1.6 6.4 0.00 0.05 0.05 93 1009.6
20260509034424 22 123 0.0 6.4 0.00 0.05 0.05 93 1009.5
20260509033357 22 83 1.6 6.4 0.00 0.05 0.05 93 1009.5
20260509031233 22 76 3.2 9.7 0.00 0.05 0.05 93 1009.2
20260509030237 22 66 1.6 9.7 0.00 0.05 0.05 93 1009.1
20260509025239 22 97 3.2 9.7 0.00 0.05 0.05 93 1008.9
20260509023054 21 73 3.2 9.7 0.00 0.05 0.05 92 1008.9
20260509022103 21 84 1.6 9.7 0.00 0.05 0.05 92 1008.8
20260509021111 22 49 1.6 8.0 0.00 0.05 0.05 92 1008.6
20260509015027 22 29 3.2 9.7 0.00 0.05 0.05 91 1008.6
20260509012956 22 40 0.0 6.4 0.00 0.05 0.05 90 1008.4
20260509012020 22 45 1.6 6.4 0.00 0.05 0.05 90 1008.3
20260509010950 22 26 1.6 8.0 0.00 0.05 0.05 89 1008.3
20260509004815 23 53 4.8 12.9 0.00 0.05 0.05 88 1008.0
20260509002646 23 38 4.8 11.3 0.00 0.05 0.05 87 1008.4
20260509001636 23 36 3.2 11.3 0.00 0.05 0.05 87 1008.4
20260509000621 23 78 4.8 11.3 0.00 0.05 0.05 86 1008.4
20260508235609 23 39 3.2 9.7 0.00 0.05 0.05 86 1008.4
20260508234613 23 63 3.2 11.3 0.00 0.05 0.05 86 1008.4
20260508233637 23 80 3.2 11.3 0.00 0.05 0.05 85 1008.5
20260508232642 23 43 3.2 11.3 0.00 0.05 0.05 85 1008.5
20260508231608 23 70 4.8 11.3 0.00 0.05 0.05 85 1008.4
20260508230632 23 47 3.2 11.3 0.00 0.05 0.05 84 1008.5
20260508224512 23 47 4.8 12.9 0.00 0.05 0.05 83 1008.5
20260508223519 23 19 4.8 12.9 0.00 0.05 0.05 83 1008.5
20260508222449 24 21 6.4 14.5 0.00 0.05 0.05 81 1008.5
20260508215150 24 0 6.4 12.9 0.00 0.05 0.05 81 1008.9
20260508214149 24 68 4.8 11.3 0.00 0.05 0.05 81 1008.9